{"data":{"norad_id":41850,"epoch":"2026-05-25T02:15:03.005856Z","epoch_age_seconds":57064,"freshness":"FRESH","line1":"1 41850U 16067C   26145.09378479  .00004768  00000+0  22880-3 0  9990","line2":"2 41850  98.0706  10.0867 0001150  55.3714 304.7627 15.19416037522379","mean_motion":15.19416037,"eccentricity":0.000115,"inclination_deg":98.0706,"raan_deg":10.0867,"arg_perigee_deg":55.3714,"mean_anomaly_deg":304.7627,"bstar":0.0002288,"rev_number":52237,"period_min":94.773252679575,"perigee_km":506.81247089194,"apogee_km":508.3961913981,"semimajor_km":6885.741331145,"source":"CELESTRAK","updated_at":"2026-05-25T13:38:25.528499Z"}}